• în Republica Moldova
  • Lista ţărilor
  • Pe 7 zile
  • Temperatura apei
  • Hartă satelitară
  • Meteo pe hartă
  • Widget-uri
  • user-avatar
    Intrare

    Meteo pe oră la Luanda

    Astăzi, 27 Februarie, Luni

    Timp Temperatura Precipitaţii Vânt Presiune Umiditate
    00:00 +27°C° 0 mm 3 m/s 752 mmHg 84%
    01:00 +27°C° 0 mm 2 m/s 752 mmHg 85%
    02:00 +26°C° 0 mm 2 m/s 752 mmHg 87%
    03:00 +26°C° 0 mm 1 m/s 752 mmHg 89%
    04:00 +26°C° 0 mm 1 m/s 751 mmHg 91%
    05:00 +26°C° 0 mm 1 m/s 752 mmHg 89%
    06:00 +26°C° 0 mm 1 m/s 752 mmHg 86%
    07:00 +27°C° 0 mm 1 m/s 752 mmHg 81%
    08:00 +30°C° 0 mm 1 m/s 752 mmHg 69%
    09:00 +33°C° 0 mm 1 m/s 752 mmHg 56%
    10:00 +34°C° 0 mm 0 m/s 752 mmHg 44%
    11:00 +37°C° 0 mm 2 m/s 751 mmHg 41%
    12:00 +38°C° 0 mm 3 m/s 751 mmHg 37%
    13:00 +40°C° 0 mm 4 m/s 750 mmHg 34%
    14:00 +39°C° 0 mm 5 m/s 750 mmHg 39%
    15:00 +37°C° 0 mm 5 m/s 749 mmHg 43%
    16:00 +36°C° 0 mm 6 m/s 749 mmHg 48%
    17:00 +34°C° 0 mm 6 m/s 749 mmHg 56%
    18:00 +32°C° 0 mm 5 m/s 750 mmHg 65%
    19:00 +29°C° 0 mm 5 m/s 750 mmHg 73%
    20:00 +29°C° 0 mm 4 m/s 751 mmHg 76%
    21:00 +28°C° 0 mm 4 m/s 751 mmHg 79%
    22:00 +28°C° 0 mm 3 m/s 752 mmHg 81%
    23:00 +28°C° 0 mm 3 m/s 752 mmHg 81%

    Mâine, 28 Februarie, Marţi

    Timp Temperatura Precipitaţii Vânt Presiune Umiditate
    00:00 +28°C° 0 mm 3 m/s 752 mmHg 80%
    01:00 +28°C° 0 mm 3 m/s 752 mmHg 79%
    02:00 +28°C° 0 mm 2 m/s 752 mmHg 78%
    03:00 +28°C° 0 mm 2 m/s 752 mmHg 78%
    04:00 +28°C° 0 mm 2 m/s 751 mmHg 77%
    05:00 +28°C° 0 mm 2 m/s 752 mmHg 78%
    06:00 +28°C° 0 mm 2 m/s 752 mmHg 78%
    07:00 +28°C° 0 mm 2 m/s 753 mmHg 78%
    08:00 +30°C° 0 mm 1 m/s 753 mmHg 70%
    09:00 +32°C° 0 mm 1 m/s 753 mmHg 61%
    10:00 +34°C° 0 mm 1 m/s 753 mmHg 53%
    11:00 +36°C° 0 mm 2 m/s 753 mmHg 48%
    12:00 +37°C° 0 mm 2 m/s 752 mmHg 44%
    13:00 +38°C° 0 mm 3 m/s 752 mmHg 39%
    14:00 +37°C° 0 mm 4 m/s 751 mmHg 42%
    15:00 +36°C° 0 mm 4 m/s 751 mmHg 45%
    16:00 +35°C° 0 mm 5 m/s 750 mmHg 48%
    17:00 +34°C° 0 mm 5 m/s 750 mmHg 55%
    18:00 +32°C° 0 mm 5 m/s 751 mmHg 63%
    19:00 +29°C° 0 mm 4 m/s 751 mmHg 70%
    20:00 +29°C° 0 mm 4 m/s 751 mmHg 73%
    21:00 +28°C° 0 mm 4 m/s 752 mmHg 76%
    22:00 +28°C° 0 mm 3 m/s 753 mmHg 79%
    23:00 +27°C° 0 mm 3 m/s 753 mmHg 80%

    Poimâine, 1 Martie, Miercuri

    Timp Temperatura Precipitaţii Vânt Presiune Umiditate
    00:00 +27°C° 0 mm 3 m/s 753 mmHg 81%
    01:00 +27°C° 0 mm 3 m/s 753 mmHg 82%
    02:00 +27°C° 0 mm 3 m/s 752 mmHg 82%
    03:00 +27°C° 0 mm 3 m/s 752 mmHg 82%
    04:00 +27°C° 0 mm 3 m/s 752 mmHg 81%
    05:00 +27°C° 0 mm 3 m/s 752 mmHg 80%
    06:00 +27°C° 0 mm 3 m/s 753 mmHg 78%
    07:00 +28°C° 0 mm 3 m/s 753 mmHg 76%
    08:00 +28°C° 0 mm 2 m/s 753 mmHg 72%
    09:00 +29°C° 0 mm 2 m/s 754 mmHg 67%
    10:00 +30°C° 0 mm 2 m/s 754 mmHg 63%
    11:00 +32°C° 0 mm 2 m/s 753 mmHg 54%
    12:00 +35°C° 0 mm 2 m/s 753 mmHg 46%
    13:00 +37°C° 0 mm 2 m/s 752 mmHg 37%
    14:00 +37°C° 0 mm 3 m/s 751 mmHg 39%
    15:00 +36°C° 0 mm 4 m/s 751 mmHg 42%
    16:00 +35°C° 0 mm 5 m/s 750 mmHg 44%
    17:00 +33°C° 0 mm 5 m/s 751 mmHg 53%
    18:00 +30°C° 0 mm 4 m/s 751 mmHg 61%
    19:00 +28°C° 0 mm 4 m/s 752 mmHg 69%
    20:00 +28°C° 0 mm 4 m/s 752 mmHg 72%
    21:00 +27°C° 0 mm 3 m/s 753 mmHg 75%
    22:00 +27°C° 0 mm 3 m/s 754 mmHg 78%
    23:00 +27°C° 0 mm 3 m/s 754 mmHg 81%

    2 Martie, Joi

    Timp Temperatura Precipitaţii Vânt Presiune Umiditate
    00:00 +26°C° 0 mm 2 m/s 753 mmHg 83%
    01:00 +26°C° 0 mm 2 m/s 753 mmHg 86%
    02:00 +26°C° 0 mm 2 m/s 753 mmHg 84%
    03:00 +26°C° 0 mm 2 m/s 753 mmHg 81%
    04:00 +27°C° 0 mm 2 m/s 752 mmHg 79%
    05:00 +27°C° 0 mm 1 m/s 753 mmHg 79%
    06:00 +27°C° 0 mm 1 m/s 753 mmHg 80%
    07:00 +27°C° 0 mm 1 m/s 754 mmHg 80%
    08:00 +29°C° 0 mm 1 m/s 754 mmHg 71%
    09:00 +30°C° 0 mm 1 m/s 754 mmHg 62%
    10:00 +32°C° 0 mm 1 m/s 754 mmHg 54%
    11:00 +35°C° 0 mm 2 m/s 754 mmHg 47%
    12:00 +36°C° 0 mm 2 m/s 753 mmHg 40%
    13:00 +38°C° 0 mm 3 m/s 752 mmHg 34%
    14:00 +37°C° 0 mm 4 m/s 751 mmHg 35%
    15:00 +37°C° 0 mm 4 m/s 751 mmHg 37%
    16:00 +36°C° 0 mm 5 m/s 750 mmHg 39%
    17:00 +34°C° 0 mm 5 m/s 751 mmHg 49%
    18:00 +32°C° 0 mm 4 m/s 751 mmHg 58%
    19:00 +29°C° 0 mm 4 m/s 752 mmHg 67%
    20:00 +28°C° 0 mm 4 m/s 752 mmHg 70%
    21:00 +27°C° 0 mm 3 m/s 753 mmHg 73%
    22:00 +27°C° 0 mm 3 m/s 753 mmHg 76%
    23:00 +27°C° 0 mm 3 m/s 753 mmHg 78%

    3 Martie, Vineri

    Timp Temperatura Precipitaţii Vânt Presiune Umiditate
    00:00 +26°C° 0 mm 3 m/s 753 mmHg 80%
    01:00 +26°C° 0 mm 2 m/s 752 mmHg 81%
    02:00 +26°C° 0 mm 3 m/s 752 mmHg 82%
    03:00 +26°C° 0 mm 3 m/s 752 mmHg 82%
    04:00 +25°C° 0 mm 3 m/s 751 mmHg 82%
    05:00 +25°C° 0 mm 3 m/s 752 mmHg 82%
    06:00 +25°C° 0 mm 3 m/s 752 mmHg 81%
    07:00 +26°C° 0 mm 3 m/s 752 mmHg 81%
    08:00 +28°C° 0 mm 3 m/s 753 mmHg 70%
    09:00 +31°C° 0 mm 2 m/s 753 mmHg 59%
    10:00 +34°C° 0 mm 2 m/s 753 mmHg 48%
    11:00 +36°C° 0 mm 2 m/s 752 mmHg 43%
    12:00 +37°C° 0 mm 3 m/s 752 mmHg 38%
    13:00 +39°C° 0 mm 3 m/s 751 mmHg 33%
    14:00 +38°C° 0 mm 4 m/s 750 mmHg 37%
    15:00 +37°C° 0 mm 5 m/s 750 mmHg 41%
    16:00 +36°C° 0 mm 5 m/s 749 mmHg 45%
    17:00 +34°C° 0 mm 5 m/s 750 mmHg 53%
    18:00 +30°C° 0 mm 5 m/s 750 mmHg 62%
    19:00 +28°C° 0 mm 5 m/s 751 mmHg 70%
    20:00 +28°C° 0 mm 4 m/s 751 mmHg 73%
    21:00 +27°C° 0 mm 4 m/s 752 mmHg 77%
    22:00 +27°C° 0 mm 4 m/s 752 mmHg 80%
    23:00 +26°C° 0 mm 3 m/s 752 mmHg 83%

    4 Martie, Sâmbătă

    Timp Temperatura Precipitaţii Vânt Presiune Umiditate
    00:00 +26°C° 0 mm 3 m/s 752 mmHg 85%
    01:00 +25°C° 0 mm 2 m/s 752 mmHg 88%
    02:00 +25°C° 0 mm 2 m/s 752 mmHg 87%
    03:00 +25°C° 0 mm 2 m/s 752 mmHg 87%
    04:00 +25°C° 0 mm 2 m/s 751 mmHg 86%
    05:00 +26°C° 0 mm 2 m/s 752 mmHg 84%
    06:00 +26°C° 0 mm 2 m/s 752 mmHg 83%
    07:00 +26°C° 0 mm 2 m/s 753 mmHg 81%
    08:00 +28°C° 0 mm 2 m/s 753 mmHg 73%
    09:00 +30°C° 0 mm 1 m/s 753 mmHg 64%
    10:00 +32°C° 0 mm 1 m/s 753 mmHg 55%
    11:00 +34°C° 0 mm 2 m/s 752 mmHg 49%
    12:00 +36°C° 0 mm 2 m/s 752 mmHg 43%
    13:00 +37°C° 0 mm 3 m/s 751 mmHg 38%
    14:00 +36°C° 0 mm 3 m/s 751 mmHg 42%
    15:00 +35°C° 0 mm 4 m/s 750 mmHg 46%
    16:00 +34°C° 0 mm 5 m/s 749 mmHg 50%
    17:00 +33°C° 0 mm 5 m/s 750 mmHg 57%
    18:00 +30°C° 0 mm 4 m/s 750 mmHg 64%
    19:00 +28°C° 0 mm 4 m/s 751 mmHg 71%
    20:00 +28°C° 0 mm 4 m/s 751 mmHg 74%
    21:00 +27°C° 0 mm 3 m/s 752 mmHg 77%
    22:00 +26°C° 0 mm 3 m/s 752 mmHg 80%
    23:00 +26°C° 0 mm 3 m/s 752 mmHg 81%
    Arată mai mult